Dewpoint
68 58 58 59 50 44 39 47 49 50 47 43 41 39 36 35 33 37 40 28 25 24 22 26 45 49 50 51 51 52 52 52 53 53 53 54 54 55 56 56 57 58 59 60 62 64 62 62 63
59 53 55 54 42 33 43 47 47 48 45 43 38 41 38 33 33 31 26 25 21 19 20 23 43 47 49 49 50 51 51 52 52 52 53 54 54 54 54 54 55 56 56 57 58 60 63 61 61
55 47 49 45 36 34 41 43 45 47 42 41 36 34 32 29 28 22 20 19 17 17 19 22 41 46 48 49 50 51 51 52 52 52 52 53 54 54 54 54 54 54 54 54 55 57 60 62 60
51 48 43 38 39 37 38 39 41 38 36 37 36 29 21 20 20 17 17 14 13 15 19 29 41 45 47 49 50 51 52 52 53 53 53 54 54 54 54 54 54 53 53 52 52 54 57 59 62
47 43 35 34 37 34 34 37 40 38 32 28 33 24 20 17 17 14 12 10 13 17 22 22 42 44 46 48 49 50 51 52 54 53 53 54 54 53 54 53 53 53 53 51 52 51 54 57 59
45 38 25 25 35 31 30 30 34 34 29 30 24 21 17 13 13 13 13 15 17 20 24 26 38 44 46 47 49 50 52 52 52 52 52 53 53 53 52 52 51 51 52 52 51 51 52 54 56
44 37 34 34 33 31 26 25 25 24 22 17 19 20 14 9 14 15 15 17 18 21 23 26 30 37 44 46 47 48 50 49 50 50 50 50 50 50 51 51 50 50 50 50 50 49 50 52 53
45 41 35 36 33 33 27 23 19 19 14 13 10 10 12 11 16 16 17 17 18 20 23 26 30 32 36 38 45 47 47 47 48 48 48 48 47 45 44 44 44 46 47 48 50 50 50 51 50
45 38 35 38 36 31 25 19 14 12 9 8 7 7 10 13 15 16 16 14 18 20 25 28 32 33 36 37 38 43 45 46 46 44 45 43 38 38 39 42 45 47 49 50 51 51 50 50 49
41 39 36 33 32 28 24 20 15 13 11 9 9 9 10 12 11 11 12 14 18 23 26 29 33 35 36 35 38 37 36 37 37 38 37 38 37 38 41 43 44 45 46 48 48 49 50 49 43
35 35 32 30 28 25 20 17 15 15 14 9 9 9 10 11 10 8 11 16 21 25 29 31 34 36 35 34 35 36 35 36 38 37 37 38 37 38 38 39 39 39 42 37 37 36 35 35 35
30 30 30 29 25 21 16 12 9 12 11 8 10 10 10 5 7 11 15 19 21 24 29 31 33 31 32 33 33 33 33 36 35 37 39 39 40 39 38 38 38 39 39 38 37 37 35 33 31
28 26 25 23 19 16 13 11 9 7 7 7 8 9 8 5 10 14 19 22 23 24 28 29 31 31 31 31 32 32 32 33 35 37 39 40 41 40 40 39 38 37 38 39 38 38 36 34 32
27 23 19 16 14 12 12 11 11 6 6 6 7 7 5 5 11 17 21 22 23 22 26 28 28 30 30 30 32 32 32 33 34 36 39 39 39 40 40 40 41 40 39 38 38 38 38 36 33
20 18 17 16 16 14 13 11 8 5 5 6 6 4 3 4 13 19 22 22 20 25 26 27 28 29 30 30 31 33 33 33 34 36 36 36 39 39 40 41 42 41 40 39 38 38 38 38 36
20 20 21 17 17 14 18 17 7 4 5 7 6 -1 0 5 14 21 23 21 22 26 25 26 27 26 28 29 30 31 32 35 35 35 36 37 39 39 41 42 42 43 42 42 40 38 38 38 38
22 18 21 20 17 18 17 17 7 4 6 7 4 -5 -2 5 17 22 23 22 25 26 26 27 26 26 28 29 30 31 32 34 36 36 37 38 38 38 41 42 43 43 43 42 41 39 38 38 37
13 11 15 18 20 18 19 16 7 6 7 9 0 -3 -1 5 18 23 22 22 26 26 26 26 27 28 30 31 31 32 32 34 36 36 36 37 39 40 41 42 42 42 42 42 43 41 40 38 37
12 12 10 15 17 17 16 14 9 8 8 7 -1 -2 -1 6 19 23 22 22 25 25 27 27 28 28 29 30 30 31 32 33 35 35 37 36 40 41 41 42 42 41 42 41 42 42 40 39 37
13 7 12 16 15 14 12 12 9 7 8 5 -2 0 0 9 19 22 21 22 26 25 27 28 29 30 29 31 31 32 32 34 35 36 36 36 39 40 40 41 41 42 43 41 42 42 41 40 38
12 5 2 6 15 11 9 11 8 7 8 3 -3 2 1 11 19 23 21 23 27 26 28 28 29 29 30 31 32 33 34 34 34 34 36 38 37 36 39 41 41 41 42 41 42 42 41 39 39
9 5 3 5 13 11 9 5 13 9 5 -1 -4 1 2 13 21 24 22 24 26 27 29 28 29 29 30 31 31 31 32 32 32 34 36 37 36 36 37 39 40 41 42 42 41 42 42 41 39
5 16 14 15 14 12 15 9 8 4 1 -2 -4 3 4 14 22 24 22 26 27 28 28 29 30 30 32 31 32 32 32 31 32 34 35 35 36 36 37 38 39 40 41 42 40 41 43 42 40
9 14 16 16 14 13 13 5 6 2 0 -1 -0 4 5 15 23 25 24 27 28 28 29 30 30 30 32 32 33 33 32 31 31 33 34 34 36 38 37 38 40 40 40 42 42 42 43 42 41
7 9 13 14 13 5 4 2 4 4 4 3 5 5 5 17 23 25 25 27 28 28 29 29 30 30 31 31 32 32 32 34 32 33 35 34 36 37 38 39 40 39 40 40 42 41 41 41 41
2 8 7 6 4 2 7 5 9 6 4 2 5 7 7 19 24 26 26 28 27 27 28 29 29 30 30 31 33 32 33 33 32 31 33 34 34 37 37 40 40 40 39 40 42 42 41 41 43
3 8 7 6 3 3 5 4 5 6 2 0 3 7 7 19 25 25 25 26 26 26 27 28 29 30 30 32 32 31 30 32 32 32 31 32 34 34 38 40 40 40 39 40 40 42 40 41 40
5 4 8 9 23 9 -2 -5 -3 6 2 -0 2 6 7 20 25 25 25 26 26 26 27 28 29 29 30 31 31 30 30 32 33 33 30 31 32 35 38 40 40 40 39 39 40 41 39 39 39
7 4 4 6 2 6 3 -1 -3 2 3 2 3 6 7 20 25 24 25 26 26 26 26 27 28 29 30 30 30 31 31 31 31 30 29 29 31 32 35 39 39 41 40 38 39 40 35 37 38
6 4 1 19 20 6 16 9 -1 3 4 7 5 6 6 20 25 24 26 26 25 25 26 27 28 29 30 30 29 31 31 29 29 28 28 28 28 32 34 36 39 39 39 40 40 40 39 37 36
Lifted_Index
-2 -1 -1 -2 -2 -1 -2 -1 -1 -0 1 1 2 2 2 3 5 8 13 17 18 18 19 19 17 16 15 15 15 14 14 14 14 13 13 12 12 11 11 11 10 10 9 8 7 5 4 4 3
-0 -0 -0 -1 -1 -1 -1 -1 0 1 1 2 2 3 3 4 8 12 15 17 18 18 19 19 18 16 16 15 15 14 14 14 13 13 12 12 12 11 11 11 11 10 10 9 8 7 5 4 4
1 1 0 0 0 1 1 1 2 2 2 3 3 4 5 8 12 15 17 18 18 19 19 19 18 17 16 15 15 14 14 14 13 12 12 12 11 11 11 11 11 11 11 11 10 9 7 6 5
2 2 2 2 2 2 3 3 3 3 3 4 5 6 9 13 16 17 18 18 18 19 19 18 18 17 16 16 15 15 14 13 13 12 12 12 11 11 11 11 11 11 11 11 11 11 9 7 6
2 3 3 3 3 4 4 4 4 3 4 5 6 7 11 15 18 18 18 18 18 18 18 18 18 17 16 16 15 15 14 13 13 13 12 12 12 11 11 11 11 11 11 11 12 12 10 9 7
3 3 3 3 4 5 5 5 5 4 5 6 8 9 12 16 18 18 18 18 18 18 18 18 18 17 16 16 15 15 14 14 13 13 13 13 12 12 12 12 12 11 11 12 12 12 11 10 9
3 3 3 3 4 5 6 6 6 5 6 8 10 11 13 17 18 18 18 18 18 18 18 18 18 17 17 16 16 15 15 14 14 14 13 13 13 13 13 13 13 13 13 13 12 12 12 11 10
3 3 3 3 4 5 6 6 7 7 8 11 12 12 14 17 18 18 18 18 18 18 18 18 17 17 17 16 16 15 15 15 14 14 14 14 14 14 14 14 14 14 14 13 13 12 12 11 11
3 3 3 4 4 5 5 6 8 9 10 12 14 15 16 18 18 18 17 18 18 17 17 17 16 16 16 15 15 15 15 15 14 14 14 14 14 14 14 14 14 14 14 13 13 12 12 12 12
4 4 4 5 5 5 5 6 8 9 10 11 14 16 18 18 18 18 18 18 17 17 16 15 15 14 14 14 14 14 14 14 14 13 13 14 14 14 14 14 13 13 13 13 13 13 13 13 13
6 6 6 6 6 6 6 7 9 9 10 12 14 16 17 18 18 18 17 17 16 15 14 14 13 13 13 13 13 13 13 13 13 13 13 13 13 13 13 14 13 13 12 12 12 13 13 14 14
7 8 8 8 8 8 8 9 10 11 13 15 16 17 17 18 18 17 17 16 15 14 13 13 12 13 13 12 12 12 12 12 13 13 13 13 13 13 13 14 14 13 13 12 12 12 12 13 14
8 9 9 9 9 9 9 10 11 12 15 17 18 18 18 18 17 16 15 14 14 13 13 12 13 13 13 13 13 13 13 13 13 13 13 13 13 13 14 14 14 14 14 13 12 11 11 11 12
9 9 9 9 9 10 10 10 11 13 16 17 17 17 18 18 17 15 14 13 13 13 12 12 13 13 13 13 13 13 13 13 13 13 13 13 13 13 13 14 14 14 14 14 13 12 11 11 11
9 8 8 9 9 10 10 9 11 14 16 17 17 17 17 17 15 14 13 13 13 13 12 12 12 13 13 13 13 12 12 12 13 13 13 13 13 13 13 13 13 13 14 14 14 13 12 12 11
8 7 6 8 9 11 10 9 10 14 15 16 16 17 17 16 14 13 13 13 13 13 12 12 13 13 13 13 13 12 12 12 13 13 13 13 13 13 13 13 13 13 13 13 14 14 13 13 12
6 5 5 7 9 10 9 8 11 14 15 15 16 17 16 15 13 12 13 13 13 13 13 13 13 13 13 13 13 13 13 13 13 13 12 12 12 12 12 12 12 12 13 13 13 14 14 14 13
5 5 5 6 8 9 8 8 11 13 14 15 16 16 16 14 12 12 13 13 13 13 13 13 13 13 13 13 13 13 13 13 13 12 12 12 12 12 12 12 12 12 12 12 12 13 13 14 14
5 4 4 6 8 8 7 8 10 13 14 15 16 16 15 13 12 12 13 13 13 13 13 13 13 13 13 13 13 13 13 12 12 12 12 12 12 11 11 11 11 11 11 11 12 12 13 13 13
5 4 4 5 7 7 6 7 9 12 14 15 16 15 14 13 12 12 13 13 13 13 13 13 13 13 13 13 13 13 12 12 12 12 12 11 11 11 10 10 10 10 10 11 11 11 11 12 12
5 4 4 4 5 6 6 6 8 11 14 15 16 15 14 12 11 12 13 13 13 13 14 13 13 13 13 13 13 12 12 12 12 12 11 10 10 10 9 9 8 9 9 10 10 10 10 11 11
4 5 4 4 4 4 4 4 6 9 12 14 15 14 14 12 11 12 13 13 13 13 14 13 13 13 13 13 12 12 12 12 12 11 10 10 9 9 8 7 7 7 8 8 9 9 10 10 10
5 5 5 4 3 3 3 4 5 8 10 12 13 13 13 12 12 12 13 14 14 14 14 13 13 13 13 12 12 12 12 12 11 11 10 9 9 8 7 7 7 7 7 7 8 9 9 9 9
6 5 4 3 3 2 3 4 5 7 9 11 13 13 13 12 11 12 13 14 14 14 14 13 13 13 12 12 12 12 12 11 11 10 10 9 8 7 7 7 7 7 6 7 7 8 8 9 9
5 4 2 2 1 1 3 4 5 8 11 12 13 13 13 12 11 12 13 14 14 14 14 13 13 12 12 11 11 11 11 11 10 10 10 9 8 7 7 7 7 6 6 7 7 7 8 8 8
5 4 2 1 0 1 2 3 6 9 12 14 14 14 13 11 11 12 14 14 14 14 14 13 13 12 11 11 11 11 11 11 10 10 10 9 8 7 6 6 6 6 6 6 7 7 7 7 8
5 4 3 2 1 1 2 3 6 9 12 13 14 13 12 11 11 12 14 14 14 14 14 13 13 12 11 11 11 11 11 11 10 10 9 9 8 7 6 6 5 5 6 6 6 6 6 6 7
5 5 4 3 1 1 1 3 5 8 11 12 13 12 12 11 11 12 14 14 14 14 14 13 13 12 12 11 11 11 12 12 11 10 9 9 8 8 7 5 5 5 5 6 6 6 6 6 6
6 5 4 3 2 1 1 3 6 9 11 12 13 12 11 11 11 12 14 14 14 14 14 13 13 12 12 11 11 11 12 12 11 11 10 9 9 8 7 6 5 5 5 6 6 6 6 6 6
6 5 4 3 2 2 2 3 7 10 11 13 13 13 12 11 11 13 14 14 14 14 14 13 13 12 12 11 11 11 12 12 12 11 10 9 9 8 7 6 6 5 5 5 6 6 6 6 6